KK4OHF Weather Reports


time (UTC)temp
C
wind
direction
speed
KPH
gust
KPH
rain 1hr
cm
rain 24hr
cm
rain mn
cm
humidity
%
barometer
mb
20260503212505 20 323 1.6 11.3 0.00 0.00 0.00 37 1016.7
20260503212005 20 15 3.2 11.3 0.00 0.00 0.00 37 1016.7
20260503211506 20 302 4.8 12.9 0.00 0.00 0.00 37 1016.7
20260503211005 20 215 6.4 12.9 0.00 0.00 0.00 37 1016.7
20260503210504 20 258 6.4 16.1 0.00 0.00 0.00 37 1016.7
20260503210005 20 261 4.8 12.9 0.00 0.00 0.00 37 1016.7
20260503205506 20 282 6.4 12.9 0.00 0.00 0.00 36 1016.7
20260503204505 21 267 6.4 12.9 0.00 0.00 0.00 38 1017.9
20260503204006 21 266 3.2 9.7 0.00 0.00 0.00 38 1017.9
20260503203506 21 312 0.0 11.3 0.00 0.00 0.00 39 1017.9
20260503203005 21 327 4.8 4.8 0.00 0.00 0.00 39 1017.9
20260503202504 21 211 0.0 9.7 0.00 0.00 0.00 37 1017.9
20260503202005 21 256 4.8 11.3 0.00 0.00 0.00 38 1017.9
20260503201505 21 279 8.0 14.5 0.00 0.00 0.00 36 1017.9
20260503201006 21 287 3.2 9.7 0.00 0.00 0.00 34 1017.9
20260503200005 21 316 3.2 11.3 0.00 0.00 0.00 38 1017.9
20260503195505 21 293 3.2 11.3 0.00 0.00 0.00 38 1017.9
20260503195005 20 299 4.8 9.7 0.00 0.00 0.00 38 1017.9
20260503194505 21 341 3.2 4.8 0.00 0.00 0.00 38 1017.9
20260503194005 20 351 1.6 11.3 0.00 0.00 0.00 37 1017.9
20260503193506 20 269 4.8 12.9 0.00 0.00 0.00 36 1017.9
20260503193005 20 334 4.8 12.9 0.00 0.00 0.00 36 1018.9
20260503192505 20 294 3.2 12.9 0.00 0.00 0.00 35 1018.9
20260503192005 21 278 4.8 16.1 0.00 0.00 0.00 36 1018.9
20260503191506 21 242 3.2 4.8 0.00 0.00 0.00 39 1018.9
20260503191006 21 327 4.8 14.5 0.00 0.00 0.00 38 1018.9
20260503190505 20 232 4.8 14.5 0.00 0.00 0.00 39 1018.9
20260503190006 20 259 3.2 16.1 0.00 0.00 0.00 40 1018.9
20260503185505 21 28 3.2 8.0 0.00 0.00 0.00 41 1018.9
20260503185006 21 253 3.2 8.0 0.00 0.00 0.00 41 1018.9
20260503184505 20 150 3.2 11.3 0.00 0.00 0.00 42 1018.9
20260503184006 20 304 4.8 11.3 0.00 0.00 0.00 40 1018.9
20260503183505 20 280 4.8 11.3 0.00 0.00 0.00 38 1018.9
20260503183005 20 331 0.0 4.8 0.00 0.00 0.00 40 1018.9
20260503182505 20 20 3.2 8.0 0.00 0.00 0.00 40 1018.9
20260503182006 20 295 1.6 11.3 0.00 0.00 0.00 43 1019.7
20260503181506 20 329 4.8 14.5 0.00 0.00 0.00 44 1019.7
20260503181005 20 296 4.8 14.5 0.00 0.00 0.00 40 1019.7
20260503180005 19 234 6.4 14.5 0.00 0.00 0.00 42 1019.7
20260503175504 19 257 4.8 9.7 0.00 0.00 0.00 43 1019.7
20260503175005 18 297 4.8 11.3 0.00 0.00 0.00 42 1019.7
20260503174505 19 279 3.2 4.8 0.00 0.00 0.00 44 1019.7
20260503174007 18 347 3.2 11.3 0.00 0.00 0.00 42 1019.7
20260503173006 19 278 4.8 12.9 0.00 0.00 0.00 44 1019.7
20260503172005 18 61 0.0 4.8 0.00 0.00 0.00 48 1019.7
20260503171505 18 329 4.8 9.7 0.00 0.00 0.00 44 1019.7
20260503171005 18 297 3.2 9.7 0.00 0.00 0.00 45 1019.7
20260503151006 16 283 3.2 4.8 0.00 0.00 0.00 54 1020.0
20260503150506 15 41 3.2 8.0 0.00 0.00 0.00 56 1020.0
20260503131004 11 350 1.6 3.2 0.00 0.00 0.00 75 1018.2
20260503130505 11 16 1.6 4.8 0.00 0.00 0.00 76 1018.2
20260503110505 4 281 0.0 0.0 0.00 0.00 0.00 92 1018.2
20260503081504 6 281 0.0 1.6 0.00 0.00 0.00 89 1017.5
20260503081005 6 281 1.6 3.2 0.00 0.00 0.00 89 1015.8
20260503080506 6 281 0.0 0.0 0.00 0.00 0.00 89 1015.8
20260503072505 6 279 0.0 0.0 0.00 0.03 0.00 88 1015.8
20260503072005 6 279 0.0 0.0 0.00 0.03 0.00 88 1015.8
20260503071007 6 279 0.0 1.6 0.00 0.03 0.00 88 1015.8
20260503070506 6 276 1.6 3.2 0.00 0.03 0.00 88 1015.8
20260503055005 7 266 0.0 0.0 0.00 0.03 0.00 86 1015.8
20260503054505 7 266 0.0 0.0 0.00 0.03 0.00 86 1015.8
20260503054005 7 266 0.0 0.0 0.00 0.03 0.00 86 1015.8
20260503053506 7 266 0.0 0.0 0.00 0.03 0.00 85 1015.8
20260503052504 7 266 0.0 0.0 0.00 0.03 0.00 85 1015.8
20260503051504 7 266 0.0 0.0 0.00 0.03 0.00 84 1015.8
20260503051005 7 266 0.0 0.0 0.00 0.03 0.00 84 1015.8
20260503050506 7 266 0.0 0.0 0.00 0.03 0.00 84 1015.8
20260503050005 7 266 0.0 0.0 0.00 0.03 0.00 84 1015.8
20260503045504 8 266 0.0 0.0 0.00 0.03 0.00 84 1015.8
20260503044505 8 266 0.0 0.0 0.00 0.03 0.00 83 1015.8
20260503043506 8 266 0.0 0.0 0.00 0.03 0.00 82 1015.8
20260503043005 8 266 0.0 0.0 0.00 0.03 0.00 81 1015.8
20260503041504 8 266 1.6 4.8 0.00 0.03 0.00 82 1015.8
20260503041004 8 244 1.6 3.2 0.00 0.03 0.00 83 1015.8
20260503040506 8 267 0.0 0.0 0.00 0.03 0.00 83 1015.8
20260503040006 8 267 0.0 0.0 0.00 0.03 0.00 83 1015.8
20260503035005 8 267 0.0 0.0 0.00 0.03 0.03 81 1015.8
20260503034505 9 267 0.0 1.6 0.00 0.03 0.03 80 1015.8
20260503034005 9 267 0.0 0.0 0.00 0.03 0.03 79 1015.8
20260503033505 9 267 0.0 0.0 0.00 0.03 0.03 79 1015.8
20260503033005 9 267 0.0 0.0 0.00 0.03 0.03 78 1015.8
20260503032505 9 267 0.0 0.0 0.00 0.03 0.03 78 1015.8
20260503032005 9 267 0.0 0.0 0.00 0.03 0.03 77 1015.8
20260503031507 9 267 0.0 0.0 0.00 0.03 0.03 77 1015.8
20260503030504 10 267 0.0 3.2 0.00 0.03 0.03 76 1015.8
20260503030005 10 248 0.0 1.6 0.00 0.03 0.03 76 1015.8
20260503025505 10 248 0.0 1.6 0.00 0.03 0.03 75 1015.8
20260503024505 10 248 0.0 0.0 0.00 0.03 0.03 74 1014.7
20260503024005 10 248 0.0 3.2 0.00 0.03 0.03 74 1014.7
20260503023505 10 291 0.0 1.6 0.00 0.03 0.03 73 1014.7
20260503023006 10 291 0.0 3.2 0.00 0.03 0.03 73 1014.7
20260503022505 10 291 0.0 0.0 0.00 0.03 0.03 72 1014.7
20260503021505 11 291 0.0 3.2 0.00 0.03 0.03 71 1014.7
20260503021005 11 291 1.6 4.8 0.00 0.03 0.03 70 1014.7
20260503020505 11 291 0.0 3.2 0.00 0.03 0.03 68 1014.7
20260503015505 11 291 0.0 0.0 0.00 0.03 0.03 66 1014.7
20260503014504 12 291 0.0 0.0 0.00 0.03 0.03 65 1014.7
20260503014005 12 291 0.0 0.0 0.00 0.03 0.03 63 1014.7
20260503013505 12 291 0.0 0.0 0.00 0.03 0.03 62 1014.7
20260503013005 12 291 0.0 0.0 0.00 0.03 0.03 61 1014.7
20260503012506 12 291 0.0 0.0 0.00 0.03 0.03 59 1014.7
20260503012004 13 291 0.0 0.0 0.00 0.03 0.03 57 1013.1
20260503011504 13 291 0.0 0.0 0.00 0.03 0.03 56 1013.1
20260503011006 13 291 0.0 0.0 0.00 0.03 0.03 54 1013.1
20260503010505 13 291 0.0 0.0 0.00 0.03 0.03 56 1013.1
20260503010006 13 291 0.0 0.0 0.00 0.03 0.03 55 1013.1
20260503005504 13 291 0.0 0.0 0.00 0.03 0.03 53 1013.1
20260503005005 14 291 0.0 0.0 0.00 0.03 0.03 47 1013.1
20260503004006 15 291 0.0 1.6 0.00 0.03 0.03 45 1013.1
20260503003506 15 285 0.0 4.8 0.00 0.03 0.03 45 1013.1
20260503002505 16 306 0.0 3.2 0.00 0.03 0.03 42 1013.1
20260503002005 16 302 1.6 4.8 0.00 0.03 0.03 40 1013.1
20260503001506 16 290 3.2 16.1 0.00 0.03 0.03 40 1013.1
20260503001005 16 302 4.8 11.3 0.00 0.03 0.03 39 1013.1
20260503000505 16 281 3.2 8.0 0.00 0.03 0.03 39 1013.1
20260503000006 17 304 3.2 14.5 0.00 0.03 0.03 39 1013.1
20260502235505 17 299 3.2 16.1 0.00 0.03 0.03 39 1013.1
20260502235006 17 288 4.8 14.5 0.00 0.03 0.03 39 1013.1
20260502234505 17 289 4.8 19.3 0.00 0.03 0.03 40 1013.1
20260502234005 17 298 4.8 11.3 0.00 0.03 0.03 39 1013.1
20260502233505 17 292 1.6 9.7 0.00 0.03 0.03 40 1013.1
20260502233006 17 287 1.6 19.3 0.00 0.03 0.03 40 1013.1
20260502232506 17 346 3.2 8.0 0.00 0.03 0.03 40 1013.1
20260502232005 17 306 8.0 14.5 0.00 0.03 0.03 39 1012.2
20260502231006 17 14 3.2 9.7 0.00 0.03 0.03 41 1012.2
20260502230505 17 339 4.8 9.7 0.00 0.03 0.03 40 1012.2
20260502230005 18 18 3.2 11.3 0.00 0.03 0.03 40 1012.2
20260502225504 18 28 4.8 11.3 0.00 0.03 0.03 39 1012.2
20260502225005 17 3 1.6 8.0 0.00 0.03 0.03 41 1012.2
20260502224505 17 345 4.8 14.5 0.00 0.03 0.03 40 1012.2
20260502224005 17 22 4.8 14.5 0.00 0.03 0.03 41 1012.2
20260502223505 17 322 4.8 11.3 0.00 0.03 0.03 40 1012.2
20260502222006 18 352 3.2 16.1 0.00 0.03 0.03 39 1012.2
20260502221505 18 11 4.8 16.1 0.00 0.03 0.03 40 1012.2
20260502221005 18 22 3.2 11.3 0.00 0.03 0.03 39 1012.2
20260502220505 18 331 4.8 16.1 0.00 0.03 0.03 38 1012.2
20260502220004 18 2 3.2 19.3 0.00 0.03 0.03 39 1012.2
20260502215505 18 328 1.6 12.9 0.00 0.03 0.03 39 1012.2
20260502215005 18 293 8.0 22.5 0.00 0.03 0.03 36 1012.2
20260502214006 18 303 4.8 19.3 0.00 0.03 0.03 36 1012.2
20260502213505 18 356 3.2 9.7 0.00 0.03 0.03 37 1012.2
20260502213005 18 325 3.2 11.3 0.00 0.03 0.03 36 1012.2